TimeAKST,TemperatureF,Dew PointF,Humidity,Sea Level PressureIn,VisibilityMPH,Wind Direction,Wind SpeedMPH,Gust SpeedMPH,PrecipitationIn,Events,Conditions,WindDirDegrees,DateUTC
12:53 AM,43.0,33.1,68,29.89,10.0,South,9.2,-,0.00,,Overcast,170,2013-01-05 09:53:00
1:53 AM,44.1,33.1,65,29.86,10.0,Variable,6.9,-,N/A,,Overcast,0,2013-01-05 10:53:00
3:53 AM,44.1,30.9,60,29.83,10.0,SSE,11.5,-,N/A,,Overcast,160,2013-01-05 12:53:00
4:53 AM,43.0,33.1,68,29.81,10.0,South,5.8,-,N/A,,Overcast,170,2013-01-05 13:53:00
5:53 AM,43.0,33.1,68,29.78,10.0,SSE,5.8,-,N/A,,Overcast,160,2013-01-05 14:53:00
6:07 AM,42.8,33.8,70,29.77,10.0,SSE,8.1,-,0.00,Rain,Light Rain,160,2013-01-05 15:07:00
6:53 AM,42.1,34.0,73,29.75,10.0,SSE,9.2,-,0.00,Rain,Light Rain,160,2013-01-05 15:53:00
7:53 AM,39.9,37.0,89,29.72,10.0,South,8.1,-,0.01,Rain,Light Rain,180,2013-01-05 16:53:00
8:53 AM,41.0,37.9,89,29.70,10.0,South,6.9,18.4,0.02,Rain,Light Rain,170,2013-01-05 17:53:00
9:53 AM,41.0,37.9,89,29.68,10.0,South,8.1,-,0.01,Rain,Light Rain,180,2013-01-05 18:53:00
10:53 AM,41.0,37.9,89,29.66,10.0,SSE,11.5,19.6,0.02,Rain,Light Rain,160,2013-01-05 19:53:00
11:40 AM,41.0,39.2,93,29.66,9.0,SE,31.1,39.1,0.02,Rain,Light Rain,130,2013-01-05 20:40:00
11:53 AM,41.0,41.0,100,29.67,3.0,SE,29.9,36.8,0.04,Rain,Light Rain,130,2013-01-05 20:53:00
12:53 PM,41.0,39.9,96,29.72,6.0,SE,13.8,21.9,0.02,Rain,Light Rain,140,2013-01-05 21:53:00
1:53 PM,42.1,39.0,89,29.74,10.0,SE,10.4,-,0.00,,Overcast,140,2013-01-05 22:53:00
2:53 PM,42.1,39.9,92,29.74,10.0,SSE,6.9,-,N/A,,Overcast,160,2013-01-05 23:53:00
3:53 PM,39.9,37.9,93,29.74,10.0,SSE,6.9,-,0.01,,Overcast,150,2013-01-06 00:53:00
4:53 PM,37.9,37.9,100,29.73,10.0,South,4.6,-,0.03,Rain,Light Rain,180,2013-01-06 01:53:00
5:53 PM,39.9,37.9,93,29.71,10.0,SSE,6.9,-,0.00,,Overcast,160,2013-01-06 02:53:00
6:53 PM,39.9,37.9,93,29.70,10.0,SSE,8.1,-,0.01,Rain,Light Rain,150,2013-01-06 03:53:00
7:53 PM,39.0,37.9,96,29.71,8.0,SSE,11.5,-,0.04,Rain,Rain,160,2013-01-06 04:53:00
8:53 PM,39.0,37.0,93,29.70,10.0,SE,15.0,-,0.03,,Overcast,140,2013-01-06 05:53:00
9:17 PM,39.2,37.4,93,29.70,10.0,SSE,8.1,-,N/A,,Overcast,160,2013-01-06 06:17:00
9:42 PM,39.2,37.4,93,29.70,10.0,South,5.8,-,0.01,Rain,Light Rain,190,2013-01-06 06:42:00
9:53 PM,39.0,37.9,96,29.70,10.0,South,6.9,-,0.01,Rain,Light Rain,190,2013-01-06 06:53:00
10:53 PM,37.0,37.0,100,29.72,9.0,SSW,4.6,-,0.07,Rain,Light Rain,200,2013-01-06 07:53:00
11:53 PM,37.0,37.0,100,29.72,10.0,Variable,3.5,-,0.01,,Overcast,0,2013-01-06 08:53:00